Regional Weather Roundup
Issued by NWS Wakefield, VA

Home | Current Version | Previous Version | Graphics & Text | Print | Product List | Glossary On
Versions: 1 2 3 4 5 6 7 8 9 10 11 12 13 14 15 16 17 18 19 20 21 22 23 24 25 26
000
ASUS41 KAKQ 221214
RWRAKQ

REGIONAL WEATHER ROUNDUP
NATIONAL WEATHER SERVICE WAKEFIELD VA
800 AM EDT SUN APR 22 2018

Note: "fair" indicates few or no clouds below 12,000 feet with no
significant weather and/or obstructions to visibility. * = Denotes
station may not report precipitation (e.g., rain,snow,etc.),
thunder or fog.

VAZ042-051-052>054-056-221300-
NORTHERN VIRGINIA

CITY           SKY/WX    TMP DP  RH WIND       PRES   REMARKS
WASH NATIONAL  PTSUNNY   50  40  68 E3        30.42R
DULLES         PTSUNNY   48  40  73 E6        30.40R
FORT BELVOIR   PTSUNNY   47  40  77 CALM      30.41R
QUANTICO       FAIR      50  43  77 S7        30.41S
FREDERICKSBRG* FAIR      48  43  81 SE3       30.39S
STAFFORD*        N/A     48  43  81 CALM      30.44R HAZE
WARRENTON      FAIR      48  38  69 CALM      30.39R
CULPEPER*      FAIR      46  39  76 CALM      30.40R
MANASSAS*      FAIR      46  41  82 CALM      30.40R
LEESBURG*      FAIR      48  41  76 NE3       30.41R
WINCHESTER     FAIR      45  32  61 N5        30.38S
FRONT ROYAL*   FAIR      45  34  65 CALM      30.36R
LURAY*         FAIR      45  37  76 CALM      30.35S
$$

VAZ048-049-060>072-079>083-221300-
CENTRAL AND SOUTH CENTRAL VIRGINIA

CITY           SKY/WX    TMP DP  RH WIND       PRES   REMARKS
RICHMOND       FAIR      47  44  90 SE6       30.40R
CHESTERFIELD*  FAIR      48  42  80 SE6       30.40S
PETERSBURG*    FAIR      46  41  81 CALM      30.40S
HANOVER        FAIR      47  41  80 CALM      30.41S
TAPPAHANNOCK*  FAIR      47  42  84 CALM      30.41S
QUINTON*       FAIR      46  41  82 CALM      30.40S
CHARLOTTSVILLE FAIR      50  36  58 CALM      30.37R
GORDONSVILLE*  FAIR      48  42  80 CALM      30.38R
ORANGE*        FAIR      46  41  81 CALM      30.38R
LOUISA*        FAIR      49  42  77 SE6       30.42S
BUMPASS*       FAIR      48  42  80 S7        30.38S
FARMVILLE*     FAIR      50  50 100 S3        30.37R
CREWE*         FAIR      48  48 100 CALM      30.38S
FORT PICKETT*  FAIR      47  47 100 SE3       30.38S
CHASE CITY*    FAIR      49  41  72 SE3       30.37S
CLARKSVILLE*   FAIR      48  43  81 S3        30.37R
SOUTH HILL*    FAIR      46  44  95 CALM      30.44R
LAWRENCEVILLE* FAIR      47  43  87 SE3       30.38S
EMPORIA*       FAIR      46  41  81 E3        30.41S
$$

VAZ088>098-221300-
SOUTHEAST VIRGINIA

CITY           SKY/WX    TMP DP  RH WIND       PRES   REMARKS
NORFOLK        FAIR      51  38  60 S3        30.41R
VIRGINIA BEACH FAIR      49  43  80 CALM      30.40S
NORFOLK NAVAL  FAIR      51  36  56 CALM      30.42S
WEST POINT*    FAIR      47  42  85 CALM      30.42F
SALUDA*        FAIR      49  41  73 CALM      30.41S
NEWPORT NEWS   FAIR      48  43  82 CALM      30.41S
LANGLEY AFB    FAIR      49  43  81 CALM      30.41R
FORT EUSTIS    FAIR      50  43  76 CALM      30.39R
WILLIAMSBURG*  FAIR      48  43  81 CALM      30.42S
HR EXEC AP*    FAIR      47  41  80 CALM      30.42S
FRANKLIN*      FAIR      46  40  78 CALM      30.41S
US460-WAKEFLD  FAIR      47  41  80 CALM      30.40S
$$

VAZ020-022-025-037-045-221300-
WEST CENTRAL AND SOUTHWEST VIRGINIA

CITY           SKY/WX    TMP DP  RH WIND       PRES   REMARKS
STAUNTON*      FAIR      44  37  77 CALM      30.37R
WAYNESBORO*    FAIR      48  33  54 CALM      30.34S
HOT SPRINGS VA FAIR      46  26  46 S5        30.33S
LYNCHBURG      FAIR      49  38  65 CALM      30.36R
DANVILLE       FAIR      47  44  90 CALM      30.37R
SOUTH BOSTON*  FAIR      47  41  79 CALM      30.37R
MARTINSVILLE   FAIR      41  37  84 CALM      30.38R
ROANOKE        FAIR      48  37  65 CALM      30.37R
BLACKSBURG     FAIR      50  34  54 CALM      30.37R
DUBLIN*        FAIR      47  37  67 CALM      30.35R
MARION*        FAIR      45  37  74 CALM      30.35R
HILLSVILLE*    FAIR      49  34  55 S3        30.32R
RICHLANDS*     FAIR      51   0  12 SE3       30.31R
WISE*          FAIR      54  32  43 S6        30.30R
ABINGDON*      FAIR      50  37  61 E3        30.31R
$$

MDZ021>025-VAZ099-100-221300-
SOUTHERN MARYLAND AND THE DELMARVA PENINSULA

CITY           SKY/WX    TMP DP  RH WIND       PRES   REMARKS
PATUXENT RIVER PTSUNNY   51  41  68 CALM      30.41S
BAY BRIDGE APT PTSUNNY   50  43  76 CALM      30.43S
LEONARDTOWN    FAIR      48  37  66 CALM      30.42S
DOVER          MOSUNNY   50  40  68 CALM      30.42R
GEORGETOWN     FAIR      52  42  69 CALM      30.43R
EASTON         MOSUNNY   48  41  76 CALM      30.46R
CAMBRIDGE      SUNNY     48  45  87 CALM      30.43R
SALISBURY      FAIR      48  44  86 NE3       30.43R
TANGIER        FAIR      54  45  71 S3        30.42R
OCEAN CITY     FAIR      49  44  83 N7        30.44R
WALLOPS ISLAND FAIR      52  45  77 CALM      30.43R
ACCOMACK*      FAIR      48  44  87 CALM      30.42R
$$

NCZ012>017-030>032-221300-
NORTH CENTRAL AND EASTERN NORTH CAROLINA

CITY           SKY/WX    TMP DP  RH WIND       PRES   REMARKS
ROANOKE RAPIDS FAIR      43  43 100 CALM      30.39S
RALEIGH        FAIR      48  44  86 CALM      30.37S
ELIZABETH CITY FAIR      53  44  71 E6        30.41R
AHOSKIE*       FAIR      43  42  98 CALM      30.40F
EDENTON*       FAIR      51  46  82 CALM      30.41S
CURRITUCK*     NOT AVBL
KILL DEVIL HLS FAIR      50  41  70 CALM      30.40R
MANTEO         FAIR      52  40  63 E5        30.41S
CAPE HATTERAS  FAIR      55  46  71 NE5       30.40R
TARBORO*       NOT AVBL
GOLDSBORO      FAIR      48  44  87 E5        30.36R
WASHINGTON     FAIR      47  42  82 E3        30.40R
GREENVILLE     FAIR      46  43  87 E5        30.39R
NEW BERN       FAIR      52  49  89 CALM      30.39S
WILMINGTON     FAIR      57  51  80 E5        30.35R
$$

VAZ048-221300-
ELSEWHERE

CITY           SKY/WX    TMP DP  RH WIND       PRES   REMARKS
HARRISBURG PA  FAIR      46  29  51 CALM      30.43R
BALTIMORE      PTSUNNY   50  42  74 SE7       30.41S
ANNAPOLIS      FAIR      52  45  77 E6        30.42R
ANDREWS AFB    FAIR      47  40  78 NE7       30.40R
PHILADELPHIA   FAIR      49  24  37 CALM      30.44S
HENDERSON NC   FAIR      46  39  77 S3        30.37S
GREENSBORO     PTSUNNY   50  44  80 CALM      30.35R
ROCKY MOUNT    FAIR      47  44  90 CALM      30.38S
$$

VAZ100-221300-
MARINE

STATION/POSITION TIME  TEMP    WIND        PRES    WAVE   SWELL
                       AIR SEA DIR/SP/G            HT/PER HT/PER
                 (UTC) (F)     (DEG/KT/KT) (MB)    (FT/S) (FT/S)
BRANDYWINE LGT   1142   51      40/  7/  8 1030.7R
CAPE MAY NJ      1148   51 49   30/  3/  4 1029.8R
LEWES DE         1142   50 50  290/  5/  5 1030.3R
15NM E FENWICK I 1150   47 46  270/  4/  4 1030.6F   1/16   2/16
OCEAN-CITY-INLET 1142   48 49   30/  6/  8 1030.9R
WACHAPREAGUE VA  1142   52 55   CALM  /  1 1030.0R
THOMAS POINT MD  1200   49 50   80/  7/  8 1031.2R
GOOSES REEF MD   1200   51      80/  4/  4 1030.7
COVE POINT MD    1142   49     180/  4/  6 1030.5R
SOLOMONS ISLAND  1142   50 52   CALM  /  2 1029.5R
BISHOPS HEAD MD  1142   52 54  220/  4/  5 1030.4R
PINEY POINT MD   1142          190/  3/  3   N/A
POTOMAC MD       1200   51 53  180/  2/  4 1031.1    1
CAMBRIDGE MD     1142   50 54              1031.2R
LEWISETTA VA     1142   50 55  230/  4/  5 1029.8R
RAPPAHANNOCK LGT 1142          190/  5/  6 1030.6R
YORK RVR RNG VA  1142   53     220/  5/  6 1030.5R
YORKTOWN VA      1142   49 56  190/  2/  4 1029.6R
DOMINION TERM VA 1142   51     170/  4/  5 1030.1R
KIPTOPEKE VA     1142      54  130/  3/  3   N/A
CAPE HENRY VA    1142   50     130/  6/  7   N/A
WILLOUBY STN VA  1142   52     190/  4/  5 1029.8R
S CRANEY ISL VA  1142   52     200/  3/  3 1029.6R
CAPE HENRY BUOY  1200      51                N/A     1/15
64NM E OF VA BCH 1150   49 48  350/  4/  4 1030.6R   2/16   2/16
DUCK PIER NC     1142   51 52   70/  5/  6 1029.4R
44100 DUCK FRF   1115      50                N/A     2/ 8
44056 DUCK FRF   1130      52                N/A     2/13
OREGON INLET NC  1142   51 54   30/  4/  6 1029.5R
HATTERAS NC      1142   55 61   50/  4/  6 1029.0R
DIAMOND SHLS NC  1200   59 74   10/ 10/ 12 1029.5
CAPE LOOKOUT NC  1200           70/ 11/ 12 1028.6R
$$




USA.gov is the U.S. government's official web portal to all federal, state and local government web resources and services.